weather.gov     
National Weather Service

Regional Weather Roundup
NWS Homepage
This page is being discontinued on March 12, 2014.
The same data is available at this site. Please update your bookmarks.
Thank you, and we apologize for the inconvenience.
Please send an email to SR-SRH.Webmaster@noaa.gov with any concerns.


Current Version
Previous Version:    01  02  03  04  05  06  07  08  09  10  11  12  13  14  15  16  17  18  19  20  21  22  23  24  25  26  27  28  29  30  
   31  32  33  34  35  36  37  38  39  40  41  42  43  44  45  46  47  48  49  50  51  52  53  54  55  56  57  58  59  60  
[Printable]
645
ASUS43 KMKX 190721
RWRWI

WISCONSIN REGIONAL WEATHER ROUNDUP
NATIONAL WEATHER SERVICE MILWAUKEE/SULLIVAN WI
200 AM CDT FRI SEP 19 2014

NOTE: "FAIR" INDICATES FEW OR NO CLOUDS BELOW 12,000 FEET WITH NO
SIGNIFICANT WEATHER AND/OR OBSTRUCTIONS TO VISIBILITY.

WIZ001-002-006>008-014>016-023>028-190800-
NORTHWEST WISCONSIN

CITY           SKY/WX    TMP DP  RH WIND       PRES   REMARKS
SUPERIOR ARPT  MOCLDY    47  46  99 E6        29.96F
ASHLAND        CLEAR     52  50  93 S9        30.01F
HAYWARD        CLEAR     53  51  93 S6        30.03S
SIREN          PTCLDY    56  53  92 SE9       29.98F
RICE LAKE      CLEAR     52  50  93 SE8       30.05S FOG
LADYSMITH      CLEAR     52  50  93 SE6       30.08S
EAU CLAIRE     CLEAR     54  51  90 S9        30.05S
MENOMONIE      MOSUNNY   52  51  97 SE5       30.05R FOG
NEW RICHMOND   PTCLDY    56  55  96 SE7       30.01F
OSCEOLA        PTCLDY    57  57  99 SE9       30.01F
$$

WIZ003>005-009-010-017-018-190800-
NORTH CENTRAL WISCONSIN

CITY           SKY/WX    TMP DP  RH WIND       PRES   REMARKS
WOODRUFF       CLOUDY    52  50  93 S10       30.09F FOG
RHINELANDER    CLOUDY    47  46  97 S5        30.12R FOG
EAGLE RIVER    CLOUDY    47  47 100 S6        30.10R FOG
LAND O LAKES   CLOUDY    48  48  98 S6        30.10S FOG
PHILLIPS       MOCLDY    50  49  95 S9G17     30.06F
TOMAHAWK       CLOUDY    47  46  96 CALM      30.12R FOG
MEDFORD        MOCLDY    48  47  98 SE9       30.10S FOG
MERRILL        CLOUDY    48  48 100 S3        30.12R FOG
$$

WIZ029-030-035-036-043>047-190800-
CENTRAL WISCONSIN

CITY           SKY/WX    TMP DP  RH WIND       PRES   REMARKS
WAUSAU         CLOUDY    50  50 100 S6        30.11S FOG
MOSINEE        FOG       48  48 100 S6        30.13S VSB 3/4
MARSHFIELD     MOCLDY    49  48  97 S6        30.11R FOG
STEVENS POINT  MOCLDY    47  47  99 SE6       30.13S FOG
WAUPACA        CLEAR     49  48  95 SE3       30.14S FOG
WAUTOMA        FOG       48  47  97 CALM      30.15R VSB<1/4
WISC RAPIDS    PTCLDY    50  49  96 S3        30.13R FOG
CAMP DOUGLAS   FOG       48  48 100 SE3       30.12R VSB 1/2
$$

WIZ011>013-019>022-031-037>040-048>050-190800-
NORTHEAST WISCONSIN

CITY           SKY/WX    TMP DP  RH WIND       PRES   REMARKS
ANTIGO         FOG       47  47 100 S9        30.13F VSB 1/2
STURGEON BAY   CLEAR     48  45  87 S6        30.15F
GREEN BAY      CLEAR     45  44  97 SE3       30.15F
MANITOWOC      CLEAR     44  43  96 CALM      30.17F
APPLETON       CLEAR     50  46  87 SE8       30.14F
CLINTONVILLE   CLEAR     43  43 100 CALM      30.14S
OSHKOSH        CLEAR     47  46  97 CALM      30.14F
$$

WIZ032>034-041-042-053>061-190800-
SOUTHWEST WISCONSIN

CITY           SKY/WX    TMP DP  RH WIND       PRES   REMARKS
LA CROSSE      CLEAR     59  53  80 S13       30.08S
SPARTA         CLEAR     55  52  90 S3        30.10S
VIROQUA        FAIR      54  54 100 SE6       30.11R
BOSCOBEL       CLEAR     54  51  90 CALM      30.12R
PRAIRIE DU CHI CLEAR     55  51  86 CALM      30.11R
PLATTEVILLE    FAIR      52  51  95 CALM      30.13R
$$

WIZ056-057-062-063-064-067-068-190800-
SOUTH CENTRAL WISCONSIN

CITY           SKY/WX    TMP DP  RH WIND       PRES   REMARKS
BARABOO/DELLS  CLEAR     49  48  94 SE3       30.12S FOG
LONE ROCK      CLEAR     54  49  83 E6        30.12S HAZE
WATERTOWN      FOG       50  50 100 SE3       30.14F VSB 3/4
MADISON        CLOUDY    51  50  96 SE9       30.14F FOG
MIDDLETON      PTSUNNY   52  52  99 SE6       30.14S
MONROE         FOG       50  50 100 E7        30.14S VSB 1/4
JANESVILLE     FOG       52  50  93 SE5       30.14F VSB 1
$$

WIZ051-052-058>065-066-070>072-190800-
SOUTHEAST WISCONSIN

CITY           SKY/WX    TMP DP  RH WIND       PRES   REMARKS
MILWAUKEE      MOCLDY    52  49  89 CALM      30.17F
WAUKESHA       FOG       45  45 100 CALM      30.17F VSB 1/2
MILWAUKEE/TIMM CLEAR     50  46  87 CALM      30.17F FOG
RACINE         PTCLDY    53  50  89 CALM      30.18F FOG
BURLINGTON     CLOUDY    47  47 100 CALM      30.16F FOG
KENOSHA        FOG       49  49 100 E5        30.17F VSB<1/4
FOND DU LAC    PTCLDY    49  47  93 S8        30.15F
SHEBOYGAN      CLEAR     40  40 100 CALM      30.17S
WEST BEND      FOG       45  43  93 CALM      30.16F VSB 3/4
JUNEAU         FOG       49  49 100 SE12      30.16F VSB<1/4
$$

LSZ147-162-190800-
LAKE SUPERIOR

STATION/POSITION TIME  TEMP    WIND        PRES    WAVE
                       AIR SEA DIR/SP/G            HT/PER
                 (UTC) (F)     (DEG/KT/KT) (MB)    (FT/S)
W MID LAKE BUOY  0650   49 48  160/  6/  6 1016.4F   1/ 4
DEVILS ISLAND    0700   51     140/  2/  2 1016.0F
PORT WING        0600   44     140/  1/  4 1015.9
SAXON HARBOR     0600   55     190/  6/ 15 1016.6S
$$

LMZ867-665-643>646-190800-
LAKE MICHIGAN

STATION/POSITION TIME  TEMP    WIND        PRES    WAVE
                       AIR SEA DIR/SP/G            HT/PER
                 (UTC) (F)     (DEG/KT/KT) (MB)    (FT/S)
N MID LAKE BUOY  0650   57 58  190/ 12/ 14 1021.5F   0
NORTHPORT PIER   0600   50     190/  3/  5 1021.3F
KEWAUNEE LAKESHO 0700   45     300/  3/  3 1020.4F
SHEBOYGAN LAKESH 0700   50 49  230/  3/  3 1022.0F
PORT WASHINGTON  0600   49     260/  3/  4 1022.7R
ATWATER BUOY     0700   60     140/  8/ 10 1022.3F
MILWAUKEE LAKESH 0700   60     130/  7/  8   N/A
S MID LAKE BUOY  0650   61 62  130/ 14/ 16 1022.0R   2/ 3
KENOSHA   LAKESH 0700   61     120/  9/ 10 1021.3F
$$

TC  - TEMPERATURE IN CELSIUS
VSB - VISIBILITY IN STATUTE MILES
WCI - WIND CHILL INDEX
HX  - HEAT INDEX





U.S. Dept. of Commerce
NOAA National Weather Service
1325 East West Highway
Silver Spring, MD 20910
E-mail: w-nws.webmaster@noaa.gov
Page last modified: May 16, 2007
NATIONAL WEATHER SERVICE: for Safety, for Work, for Fun - FOR LIFE